User: anonymous   Login
Location: Unspecified
(0.0000°N, 0.0000°E)
Time: 09:20:20
(UTC+00:00)
Language:

Brasilsat 1 - Orbit

View from above orbital plane
View from above orbital plane
View from above satellite
View from above satellite

Ground track
Ground track

The orbit data is extracted from the following two-line orbital elements,

1 15561U 85015B   19016.62437332 +.00000028 +00000-0 +00000-0 0  9994
2 15561 015.3107 007.3019 0009427 299.4581 060.0421 00.99549760019379
Epoch (UTC): 16 January 2019 14:59:05
Eccentricity: 0.0009427
inclination: 15.3107°
perigee height: 35950 km
apogee height: 36030 km
right ascension of ascending node: 7.3019°
argument of perigee: 299.4581°
revolutions per day: 0.99549760
mean anomaly at epoch: 60.0421°
orbit number at epoch: 1937

The dashed part of the orbit path shows where the satellite is in the earth's shadow,  

DLR